Tracking 28790 objects as of 19-Apr-2024
HD Live streaming from Space Station
objects crossing your sky now

BLOCK DM-SL R/B

Track BLOCK DM-SL R/B now!


NORAD ID: 29521
Int'l Code: 2006-049B
Perigee: 1,314.6 km
Apogee: 36,059.5 km
Inclination: 0.9 °
Period: 657.9 minutes
Semi major axis: 25058 km
RCS: 20.1275 m2 (large)
Launch date: October 30, 2006
Source: Sea Launch (SEAL)
Launch site: SEA LAUNCH (SEAL)

Note: This is a ROCKET BODY
Your satellite tracking list
Your tracking list is empty




NASA's NSSDC Master Catalog

Two Line Element Set (TLE):
1 29521U 06049B   24109.72180108 -.00000272  00000-0  00000-0 0  9993
2 29521   0.9486 338.1004 6932898 234.5617  21.8910  2.18867963139655
Source of the keplerian elements: AFSPC